Location: Sankt Quirin
(47.2167°N, 11.2167°E)
Time: 13:22:40
(UTC+00:00)

Daily predictions for brighter satellites

Satellite Brightness Start Highest point End
(mag) Time Altitude Azimuth Time Altitude Azimuth Time Altitude Azimuth
Resurs 01 Rocket 1.9 19:49:19 10° S 19:53:45 71° WSW 19:58:13 10° NNW
Cosmos 1850 Rocket 4.1 19:49:36 10° NNW 19:54:49 71° ENE 19:59:59 10° SSE
H-2A R/B 4.5 19:54:00 10° SSW 19:57:06 24° W 20:00:15 10° NW
Cosmos 2184 Rocket 4.2 19:51:05 10° N 19:57:11 57° ENE 20:03:17 10° SSE
GEOS 3 Rocket 3.9 19:53:35 10° SSE 19:58:38 65° SW 20:03:45 10° NW
Cosmos 1331 Rocket 4.5 19:54:51 10° S 19:59:48 42° ESE 20:04:47 10° NE
Cosmos 1656 3.9 19:56:37 10° NNW 20:02:05 72° WSW 20:07:35 10° SSE
USA 32 4.1 19:56:56 10° S 20:02:10 86° W 20:07:26 10° N
SPOT 5 3.4 19:59:05 10° SE 20:03:06 38° ENE 20:07:07 10° N
Terra 2.9 20:01:10 10° SE 20:05:19 31° ENE 20:09:29 10° N
Spot 2 Rocket 4.0 20:01:39 10° SE 20:06:30 47° ENE 20:11:24 10° N
CZ-4B R/B 1.1 20:05:09 10° N 20:08:01 78° WNW 20:10:55 10° SSW
MetOp-B 4.2 20:04:12 10° SSE 20:09:33 87° WSW 20:14:57 10° NNW
SPOT 1/Viking Rocket 4.0 20:04:39 10° S 20:09:44 63° WSW 20:14:53 10° NNW
H-2A R/B 2.9 20:06:05 10° N 20:10:28 58° WNW 20:14:52 10° SSW
Cosmos 1536 Rocket 3.5 20:10:16 10° S 20:14:35 84° E 20:18:58 10° N
USA 245 3.1 20:12:40 10° SSE 20:16:41 76° ENE 20:19:55 10° N
CARTOSAT-1 3.6 20:13:38 10° S 20:17:57 81° WSW 20:22:17 10° NNW
Cosmos 1697 Rocket 2.7 20:12:53 10° NNW 20:18:33 78° ENE 20:23:48 12° SSE
Cosmos 1980 Rocket 2.9 20:13:10 10° NNW 20:18:37 44° NE 20:23:43 11° SE
SL-16 R/B 4.3 20:15:24 10° N 20:19:07 17° NE 20:22:50 10° E
Cosmos 1606 Rocket 4.1 20:15:16 10° N 20:19:24 42° ENE 20:23:02 13° SE
Cosmos 1452 Rocket 3.7 20:17:49 10° SSW 20:23:04 76° WNW 20:28:21 10° NNE
USA 276 3.0 20:20:42 10° WNW 20:23:39 46° N 20:26:36 10° ENE
Meteor 2-1 Rocket 4.4 20:18:22 10° N 20:23:48 57° ENE 20:28:47 12° SSE
Cosmos 2369 4.2 20:18:56 10° NNW 20:24:34 53° ENE 20:29:34 13° SE
ARIANE 5 R/B 3.7 20:21:13 12° SE 20:24:48 33° ENE 20:28:45 10° N
Lacrosse 5 3.9 20:22:30 10° W 20:25:55 18° WSW 20:29:20 10° SSW
Cosmos 2344 4.4 20:18:01 10° NW 20:26:47 75° NE 20:38:14 12° SE
ERS-1 Rocket 3.2 20:22:20 12° SSE 20:26:58 61° ENE 20:31:56 10° N
ATLAS 5 CENTAUR R/B 3.0 20:27:05 13° ESE 20:27:32 13° ESE 20:29:22 10° E
Cosmos 1110 Rocket 4.0 20:22:34 10° SSW 20:27:49 78° ESE 20:33:09 10° NNE
Cosmos 1900 4.5 20:23:44 10° NW 20:28:55 84° WSW 20:33:18 14° SSE
COSMOS 2406 3.4 20:26:26 10° S 20:31:59 53° ESE 20:37:35 10° NE
Cosmos 2074 Rocket 4.2 20:32:28 10° NNW 20:38:43 72° W 20:44:54 10° S
Cosmos 1726 Rocket 3.8 20:37:30 10° N 20:41:46 55° ENE 20:44:55 17° SSE
Cosmos 968 Rocket 3.8 20:37:23 10° NNW 20:42:33 58° ENE 20:46:32 17° SE
Cosmos 1833 Rocket 2.8 20:37:15 10° SSW 20:42:52 81° WNW 20:48:31 10° NNE
Cosmos 1703 3.9 20:40:45 10° SSW 20:44:32 56° WNW 20:48:20 10° N
Cosmos 1408 3.5 20:45:32 20° SE 20:47:06 28° E 20:50:07 10° NNE
Nadezhda 1 Rocket 3.9 20:43:41 10° S 20:49:45 85° E 20:55:52 10° N
Cosmos 192 4.3 20:48:20 10° S 20:53:11 67° ESE 20:58:03 10° NNE
USA 267 4.1 20:47:54 10° ENE 20:53:16 26° SE 20:58:23 11° S
Cosmos 2322 Rocket 4.1 20:49:56 10° N 20:54:13 21° NE 20:58:30 10° E
Cosmos 1825 3.8 20:54:14 16° ESE 20:55:23 19° E 20:58:03 10° NE
RESURS DK-1 4.0 20:52:12 10° NW 20:55:39 26° WSW 20:59:05 10° SSW
Cosmos 1867 3.6 20:56:12 10° NW 21:01:43 82° NE 21:05:33 20° SE
Cosmos 2084 Rocket 3.7 21:00:50 10° NW 21:04:39 52° SW 21:06:56 23° SSE
X-37B 1.8 21:03:53 10° WSW 21:06:09 22° SSW 21:06:14 22° SSW
Helios 1A Rocket 3.5 21:03:00 15° S 21:06:09 52° W 21:10:11 10° NNW
Cosmos 2278 4.0 21:01:16 10° NNW 21:06:56 60° ENE 21:10:53 20° SE
Meteor 1-11 4.2 21:07:11 17° S 21:11:33 66° E 21:17:05 10° NNE
Cosmos 2154 Rocket 4.5 21:05:35 10° NNW 21:11:40 57° W 21:17:21 12° SSW
Cosmos 1328 4.4 21:13:36 11° SSW 21:17:18 57° WNW 21:21:15 10° N
Cosmos 2082 Rocket 2.2 21:13:07 10° SSW 21:18:50 84° ESE 21:24:33 10° NNE
SAR-Lupe-4 4.1 21:16:34 10° NNE 21:19:59 39° E 21:21:02 31° SE
CZ-2C R/B 4.0 21:16:32 10° N 21:21:03 65° WNW 21:25:23 11° SSW
Cosmos 1892 Rocket 3.7 21:21:09 17° SSW 21:24:31 75° W 21:28:55 10° N
USA 234 4.1 21:22:20 10° E 21:28:37 50° NNE 21:34:54 10° NW
SL-8 Rocket 4.0 21:22:58 10° N 21:29:13 80° E 21:33:12 24° SSE
Cosmos 2360 Rocket 3.9 21:25:00 10° N 21:29:37 25° NE 21:34:12 10° E
Cosmos 2058 Rocket 3.1 21:27:27 10° NNW 21:31:54 77° W 21:34:19 27° S
Cosmos 1626 Rocket 3.9 21:33:53 30° SSE 21:35:36 48° E 21:39:48 10° NNE
SAR-Lupe-1 4.0 21:33:05 10° NNE 21:36:40 73° ESE 21:38:02 35° S
Cosmos 1633 3.6 21:38:43 26° ESE 21:39:06 27° E 21:42:05 10° NNE
Cosmos 1992 Rocket 4.0 21:36:31 23° S 21:39:49 67° ESE 21:45:02 10° NNE
SPOT 5 4.5 21:37:57 10° SW 21:41:20 23° W 21:44:47 10° NW
Cosmos 1486 Rocket 4.0 21:37:26 10° NNW 21:42:42 83° ENE 21:45:24 29° SSE
Terra 3.0 21:39:42 16° SSW 21:43:00 35° W 21:47:21 10° NNW
Cosmos 1892 3.0 21:44:17 25° SSW 21:46:18 61° WNW 21:50:03 10° N
SJ 16-02 2.5 21:43:16 10° N 21:47:21 34° ENE 21:49:28 22° ESE
Cosmos 2366 rocket 4.0 21:42:34 10° N 21:48:57 88° W 21:52:47 26° S
FALCON 9 DEB 2.8 21:46:18 10° WNW 21:49:33 76° SSW 21:50:08 55° SE
Cosmos 2218 Rocket 4.1 21:47:29 10° N 21:53:56 82° W 21:57:46 26° S
ASTEX 1 3.6 21:50:41 10° N 21:55:40 68° W 21:58:45 23° SSW
Cosmos 807 4.1 21:55:07 10° N 21:58:07 62° E 21:58:18 59° ESE
USA 276 1.8 21:56:32 10° WNW 21:59:34 90° E 21:59:52 70° ESE
ADEOS Rocket 4.0 21:56:00 21° SE 22:00:52 53° ENE 22:08:21 10° N
ARIANE 5 R/B 4.1 21:58:45 17° SW 22:01:16 29° W 22:05:07 10° NW
Cosmos 1980 Rocket 3.3 21:57:26 10° NW 22:02:29 34° WSW 22:05:29 20° SSW
GP-B 3.7 21:58:19 10° N 22:02:39 53° W 22:05:01 25° SSW
SL-16 R/B 2.3 21:58:32 10° NNW 22:04:15 75° ENE 22:07:09 30° SE
Cosmos 2219 Rocket 4.2 22:01:38 10° N 22:06:00 22° NE 22:10:21 10° E
ATLAS 5 CENTAUR R/B 1.6 22:08:26 16° SW 22:11:18 65° NW 22:15:31 10° NE
Cosmos 1354 Rocket 4.1 22:06:26 10° NNW 22:11:46 74° ENE 22:14:08 33° SE
SL-4 R/B 3.3 22:14:12 22° E 22:14:12 22° E 22:15:47 10° ENE
ERS-2 4.1 22:10:56 10° NE 22:13:08 16° E 22:13:08 16° E
Cosmos 1503 Rocket 4.0 22:15:37 10° NNW 22:20:55 79° WSW 22:23:03 37° S
Okean 1-7 Rocket 4.3 22:19:49 24° SW 22:22:13 48° WNW 22:26:36 10° N
CENTAUR R/B 4.4 22:22:41 10° ESE 22:23:22 10° E 22:24:04 10° E
Cosmos 1869 4.3 22:21:58 10° NNW 22:25:35 37° W 22:26:47 29° SW
Cosmos 1758 Rocket 3.4 22:25:31 44° S 22:26:52 85° E 22:31:17 10° N
Cosmos 1777 Rocket 4.2 22:22:16 10° NNW 22:27:34 67° ENE 22:29:53 33° SE
Cosmos 1825 3.5 22:28:50 23° WSW 22:30:29 33° WNW 22:33:56 10° N
Spot 4 4.0 22:35:11 39° SSW 22:36:51 64° W 22:41:38 10° NNW
USA 267 3.2 22:30:18 10° NE 22:36:53 83° SE 22:43:27 10° SW
Cosmos 1812 Rocket 3.9 22:33:24 10° NNW 22:37:47 55° W 22:39:08 38° SSW
Cosmos 44 3.8 22:38:36 35° SE 22:38:50 35° ESE 22:42:56 10° NE
Cosmos 2322 Rocket 2.1 22:33:18 10° NNW 22:39:00 84° WSW 22:41:25 37° SSE
Cosmos 1238 4.1 22:41:08 82° SE 22:41:13 83° E 22:44:44 10° N
Cosmos-2242 3.2 22:37:53 10° NNW 22:42:05 62° W 22:43:11 44° SSW
BREEZE-M DEB (TANK) 4.0 22:39:56 10° WNW 22:43:28 88° NNE 22:58:24 10° ESE
Cosmos 1821 Rocket 4.1 22:37:17 10° NNW 22:43:30 70° W 22:46:22 33° S
Cosmos 1602 Rocket 4.4 22:48:54 27° SW 22:50:41 41° WNW 22:54:49 10° N
Cosmos 2333 Rocket 2.7 22:51:25 10° NNW 22:57:08 58° ENE 23:00:27 25° SE
Cosmos 1605 Rocket 4.5 22:53:50 10° N 23:00:08 54° ENE 23:03:25 28° SE
ALOS 2 2.9 23:00:42 43° SSW 23:01:45 55° W 23:06:05 10° NNW
Cosmos 375 4.5 23:01:30 53° S 23:02:19 69° SE 23:07:14 10° NE
BREEZE-M DEB (TANK) 4.2 22:47:40 10° WNW 23:02:57 87° SSW 23:06:22 17° ESE
Cosmos 2082 Rocket 4.5 22:59:22 10° W 23:03:39 21° NW 23:07:58 10° N
Cosmos 972 Rocket 4.1 22:59:04 10° NNW 23:04:18 82° ENE 23:06:40 36° SSE
Nadezhda 3 Rocket 4.2 23:02:13 29° SSW 23:05:22 64° WNW 23:11:31 10° N
Cosmos 1340 Rocket 2.6 23:05:53 62° S 23:06:30 86° E 23:10:30 10° NNE
Gbstr 26 Del rocket 3.0 23:05:10 41° SW 23:06:37 72° SSE 23:11:45 10° ENE
Cosmos 1606 3.6 23:07:10 10° NNW 23:10:46 37° W 23:11:18 35° WSW
USA 234 3.2 23:07:03 23° SE 23:11:26 76° SW 23:18:02 10° NW
Cosmos 2360 Rocket 2.2 23:08:30 10° NNW 23:14:10 70° WSW 23:16:14 39° S
Meteor 2-3 Rocket 4.4 23:12:54 31° SE 23:14:57 43° E 23:20:12 10° NNE
BREEZE-M DEB (TANK) 3.5 23:07:29 10° W 23:16:06 72° NNW 23:19:05 10° ENE
Cosmos 1953 Rocket 3.5 23:15:54 49° SSW 23:17:02 79° W 23:21:29 10° N
Cosmos 2333 4.2 23:15:27 10° NNW 23:21:17 86° ENE 23:23:58 34° SSE
CRYOSAT 2 4.3 23:19:59 45° S 23:21:33 89° E 23:26:28 10° N
CZ-2D R/B 4.4 23:20:51 10° ENE 23:22:17 11° E 23:23:43 10° ESE
Cosmos 1763 Rocket 4.1 23:21:39 35° SE 23:23:07 44° ESE 23:28:08 10° NNE
Cosmos 2151 4.0 23:23:01 30° ESE 23:24:00 34° E 23:27:53 10° NNE
SJ 16-02 2.6 23:22:01 10° NW 23:25:46 27° W 23:26:24 26° WSW
Cosmos 1825 Rocket 4.4 23:24:44 31° WSW 23:26:09 41° WNW 23:30:17 10° N
PSLV R/B 3.7 23:23:09 10° NNE 23:27:56 82° ESE 23:29:18 47° S
Cosmos 1782 3.6 23:24:55 10° N 23:28:43 42° ENE 23:29:46 34° ESE
Cosmos 2058 3.9 23:28:04 31° WSW 23:29:19 39° WNW 23:33:16 10° N
Cosmos 1833 4.1 23:27:13 35° SSW 23:29:39 86° WNW 23:35:18 10° NNE
Cosmos 990 Rocket 4.0 23:29:53 10° NNW 23:35:03 74° ENE 23:37:18 34° SE
USA 290 3.1 23:35:11 10° N 23:38:19 42° ENE 23:38:48 39° E
Cosmos 2221 2.6 23:35:00 10° NNW 23:39:19 63° W 23:40:15 49° SSW
Cosmos 2237 Rocket 4.0 23:34:40 10° N 23:39:32 28° NE 23:44:22 10° ESE
COSMOS 2428 3.0 23:38:00 10° NNW 23:43:43 67° ENE 23:47:19 23° SE
Cosmos 2297 Rocket 4.0 23:44:07 14° SE 23:46:20 18° E 23:50:01 10° ENE
ADEOS Rocket 4.3 23:42:56 25° SW 23:46:30 39° W 23:53:39 10° NNW
ERS-2 3.0 23:43:24 10° N 23:46:46 38° WNW 23:47:29 34° W
Cosmos 1842 Rocket 3.6 23:42:47 10° NNW 23:47:15 70° W 23:48:21 49° SSW
ISS -3.6 23:47:44 61° E 23:47:44 61° E 23:50:40 10° ENE
SL-16 R/B 3.8 23:43:53 10° WNW 23:47:41 19° W 23:49:00 17° WSW
COSMOS 2455 4.2 23:42:23 10° NNW 23:47:58 37° NE 23:53:29 10° ESE
Nimbus 7 Rocket 4.5 23:43:21 10° NNE 23:49:17 74° WNW 23:52:10 32° SSW
COSMOS 2487 2.2 23:49:36 73° NNW 23:49:36 73° NNW 23:52:30 10° NNE
Cosmos 2219 Rocket 2.1 23:44:57 10° NNW 23:50:38 81° WSW 23:53:12 34° SSE
Cosmos 468 Rocket 4.1 23:49:02 40° S 23:50:52 67° ESE 23:56:10 10° NNE
SL-4 R/B 2.3 23:49:35 21° W 23:51:45 57° NNW 23:55:29 10° ENE
SL-27 R/B 2.4 23:53:43 61° W 23:53:53 62° WNW 23:57:08 10° NNE
Cosmos 540 Rocket 3.9 23:52:58 36° SSE 23:54:38 50° ESE 23:59:37 10° NNE
ATLAS 5 CENTAUR R/B 4.2 23:54:12 10° WNW 23:56:47 16° NNW 23:59:35 10° NNE
